sat.trackr.live / text

‹ back to catalog

STARLINK-3565

NORAD 51886 · 2022-022AL

PAYLOAD ACTIVE UNKNOWN

§ Identity

Operator
Country
US
Launch date
2022-03-03
Launch site
AFETR
Launch vehicle
Mass (kg)
RCS (m²)

Purposes: comms

External: N2YO · Heavens-Above · Gunter

§ Orbital elements

Epoch: 2026-09-19T11:49:47.527680Z

Period
95.27 min
Inclination
53.1764°
Eccentricity
0.0001899
Mean motion
15.11516199 rev/d
Perigee alt
530.3 km
Apogee alt
532.9 km
Semi-major
6,909.7 km
B*
8.4835e-4
RAAN
207.6367°
Arg perigee
70.7355°
Mean anomaly
289.3843°
Rev number
25,252

§ Raw data

STARLINK-35651 51886U 22022AL  26262.49291120  .00014269  00000+0  84835-3 0  99942 51886  53.1764 207.6367 0001899  70.7355 289.3843 15.11516199252523

JSON: /api/v1/satellites/51886 · /tle

For live sub-satellite position, see the globe view (requires WebGL).

§ Visibility from observer

Set your observer location to see the next 7 days of passes ≥ 10°. The values pass through the URL so the page stays shareable.

No JS? Fill the form by hand. The geolocation button needs JavaScript.